Wind_Speed
19 20 20 20 20 21 22 22 23 21 22 22 24 25 26 27 27 28 29 30 30 31 32 32 33 34 36 37 38 39 41 42 43 45 46 46 46 47 48 49 51 51 52 53
21 22 23 22 22 22 23 23 24 24 23 24 26 27 27 28 28 28 29 30 31 32 32 33 34 36 37 38 40 41 42 43 44 45 46 47 47 49 50 51 52 53 53 54
24 23 24 23 22 23 23 24 25 25 25 27 27 28 28 30 30 31 31 32 33 34 35 36 37 38 40 41 42 43 44 45 46 47 48 48 49 51 51 52 53 54 55 55
27 27 27 25 25 25 26 26 27 28 28 28 29 29 30 31 32 32 33 34 35 36 37 38 39 40 42 43 44 45 45 46 47 48 49 50 51 52 53 54 55 56 56 56
30 30 29 28 28 28 29 29 29 30 30 30 31 31 32 33 33 34 35 36 37 39 40 41 42 43 44 45 46 47 47 48 49 50 51 52 54 55 55 56 56 57 57 57
33 33 32 31 31 31 32 32 31 32 32 33 33 33 33 34 35 37 38 39 40 41 42 43 44 45 46 47 48 48 49 50 51 53 54 55 56 56 57 57 57 57 57 58
35 36 35 34 34 34 34 34 34 34 34 35 35 36 36 37 38 39 40 41 42 43 44 46 47 47 48 49 49 50 51 52 53 54 55 56 57 57 58 58 57 58 58 58
37 38 37 36 36 36 36 37 36 36 36 37 37 38 39 40 41 42 43 44 45 46 47 48 49 49 50 51 51 52 53 54 55 56 56 57 57 57 58 58 58 58 59 58
39 39 39 39 38 38 38 38 38 38 39 39 40 41 42 43 44 45 46 46 47 48 49 49 50 51 52 53 53 54 55 56 56 57 57 58 58 58 58 58 58 59 59 58
41 40 40 41 41 40 40 40 40 41 42 42 43 44 45 46 47 47 48 49 50 50 51 51 52 53 54 55 55 56 56 56 57 57 58 58 58 58 58 58 58 57 57 56
43 42 43 44 44 43 43 43 43 44 44 45 46 47 48 48 49 50 50 51 51 52 52 53 54 55 55 56 56 56 56 56 57 57 58 57 57 57 57 57 57 56 56 55
44 44 46 45 45 45 46 46 46 47 47 47 48 49 49 50 51 51 52 52 53 53 53 54 54 55 55 56 56 56 56 56 57 57 57 56 56 56 56 56 55 55 54 54
45 46 46 46 46 47 47 48 48 49 49 49 50 50 50 51 51 52 52 53 53 53 54 54 54 54 54 55 55 56 56 56 56 56 56 56 56 55 54 53 53 52 52 52
46 46 47 47 47 48 48 49 50 50 50 50 50 51 51 52 52 52 52 52 53 53 53 53 53 53 54 55 55 55 55 55 56 56 55 55 55 54 53 52 51 50 50 50
47 48 48 48 48 49 49 50 50 50 50 50 50 51 51 51 51 51 51 52 52 53 52 52 53 53 54 54 54 54 55 55 55 54 54 53 53 52 51 51 50 49 48 47
48 48 48 48 48 48 48 48 48 48 49 49 48 48 49 49 50 50 51 51 52 51 51 52 52 52 53 53 54 54 54 53 53 53 52 51 51 51 50 49 48 47 46 45
46 46 46 46 46 46 46 46 47 47 46 46 47 48 49 49 50 50 50 50 50 50 51 52 52 52 52 53 53 52 52 51 51 50 50 50 49 49 48 47 46 45 44 43
45 45 45 45 45 46 46 46 46 46 46 47 48 48 48 49 49 49 49 49 50 50 51 52 52 52 52 52 52 51 50 50 49 49 49 48 48 47 46 46 44 43 42 40
44 44 44 45 45 45 45 46 46 46 47 47 47 47 48 48 49 49 50 50 50 51 51 52 52 52 51 51 51 50 49 49 49 49 48 47 46 46 45 43 41 40 39 38
43 44 44 44 44 44 45 45 45 45 46 47 47 48 48 48 49 50 50 50 51 52 51 51 50 50 49 50 50 49 49 49 48 47 47 46 45 43 41 39 38 37 36 36
42 42 42 43 43 44 45 45 46 46 46 47 47 48 48 49 49 50 50 50 49 50 49 49 48 48 48 48 48 48 48 47 46 45 44 42 41 39 37 37 36 36 35 34
41 42 42 43 44 44 45 46 46 47 47 48 48 48 48 48 49 49 49 49 48 48 47 47 47 47 48 48 47 46 46 44 43 42 40 39 38 37 36 35 34 34 33 32
42 42 42 43 44 44 45 45 46 47 47 47 47 47 48 48 48 48 47 47 47 47 46 46 47 47 47 46 45 44 42 41 39 38 37 36 35 35 34 33 32 32 30 29
43 43 44 44 45 46 46 46 47 47 47 47 47 47 47 47 47 47 48 47 47 47 46 46 46 45 44 43 41 40 39 38 37 36 35 34 33 33 32 31 29 28 27 26
43 44 45 45 45 45 46 45 45 45 45 45 45 45 46 47 47 47 47 47 47 46 45 45 44 43 42 40 39 37 36 35 34 33 32 31 31 30 28 27 26 25 23 22
45 45 46 46 46 46 46 45 45 45 45 46 46 46 47 48 49 48 47 46 45 44 44 43 42 40 39 38 37 35 34 32 31 31 30 29 28 27 26 25 23 22 21 20
45 45 45 45 45 46 46 47 47 47 48 48 48 48 48 48 48 47 46 45 44 43 42 40 39 38 37 36 34 33 32 30 29 29 28 27 26 25 24 23 21 20 20 19
Wind_Direction
280 281 282 281 281 280 281 281 282 282 280 278 277 278 278 278 277 277 277 277 277 277 278 278 278 279 279 279 281 282 283 284 285 286 288 288 289 290 290 290 291 292 292 292
280 280 281 282 283 282 282 283 284 283 282 279 278 279 279 278 278 279 279 279 279 279 279 279 280 280 281 281 281 283 284 285 286 288 288 289 290 291 292 292 292 292 293 293
281 281 282 283 283 282 283 283 283 284 283 281 281 281 281 281 281 281 281 281 281 281 282 282 282 282 283 284 284 284 285 286 287 287 288 289 290 291 292 292 293 293 293 294
281 281 281 284 283 283 283 283 283 284 283 283 282 282 282 283 283 283 283 283 283 283 283 283 284 284 285 285 285 286 287 288 288 289 289 290 291 292 292 293 294 294 293 293
280 280 281 282 283 283 283 283 284 284 283 283 283 283 284 284 284 284 284 284 285 285 285 285 286 286 287 287 287 288 289 289 290 290 290 291 292 293 293 294 294 294 294 293
278 279 280 282 282 282 282 283 283 282 282 282 283 283 283 284 285 286 286 286 286 286 286 287 287 287 288 288 289 289 290 290 291 291 292 292 293 294 294 294 294 294 294 294
277 279 280 282 282 282 282 283 283 283 283 283 283 284 284 285 285 286 287 287 287 287 287 288 288 288 288 289 290 290 291 292 293 293 293 294 294 294 294 294 294 294 293 293
276 278 280 281 281 280 281 282 282 283 284 284 284 285 285 286 286 287 287 288 288 288 288 288 289 289 290 290 291 291 292 293 294 294 295 295 295 295 295 294 294 293 293 293
275 277 278 279 279 279 280 281 282 283 283 284 285 285 285 286 287 287 288 288 288 289 289 290 290 290 290 291 291 292 293 293 294 295 295 295 295 295 295 295 294 294 293 293
274 275 275 276 277 278 279 280 281 282 283 284 285 285 286 286 287 288 288 289 289 289 290 290 290 291 291 291 292 292 293 294 295 295 296 296 296 296 296 295 295 294 294 294
273 274 274 274 276 277 278 278 279 281 282 284 284 285 286 287 287 288 288 289 289 290 290 290 290 291 291 292 292 293 293 294 295 296 296 296 296 296 296 296 296 295 295 294
273 273 273 274 275 276 277 278 280 281 283 284 284 285 286 287 287 288 289 289 289 290 290 291 291 292 292 293 293 294 294 295 296 296 296 297 297 297 297 296 296 296 295 294
274 274 274 275 276 277 278 279 280 282 283 284 284 285 286 286 287 288 288 288 289 290 291 291 292 292 293 294 294 294 295 296 296 297 297 297 297 297 297 296 296 296 296 295
273 274 274 276 277 278 279 280 281 282 282 283 284 285 286 286 287 288 288 289 289 291 292 293 293 293 294 294 295 295 296 297 297 297 298 298 298 298 297 297 296 295 295 295
272 274 275 277 278 278 279 280 281 282 283 283 284 285 286 286 287 288 289 289 290 291 293 293 293 294 294 295 296 296 297 297 297 297 297 297 298 298 298 298 297 296 295 294
273 274 276 277 278 279 280 281 281 282 283 284 285 285 286 287 287 288 289 290 291 292 293 293 293 294 295 296 297 297 297 297 297 297 297 297 298 298 298 298 298 297 296 295
274 275 276 277 278 279 280 282 283 284 285 285 286 287 287 288 289 289 290 291 292 293 293 293 294 295 296 297 297 298 298 297 297 297 298 298 298 297 298 299 298 298 297 296
274 274 275 276 277 279 280 282 283 284 285 286 287 288 288 289 289 290 291 292 293 294 294 294 295 296 296 297 297 298 298 298 298 298 299 299 298 298 298 298 298 298 297 296
273 275 276 278 279 280 281 283 284 284 285 287 287 288 289 289 290 291 293 294 294 294 294 294 295 296 296 296 297 297 298 299 299 299 299 298 298 298 298 297 297 297 296 296
276 277 278 278 280 281 282 283 284 285 286 288 289 289 290 291 291 292 293 294 295 294 295 295 295 295 296 297 297 298 298 299 299 299 299 298 298 298 297 296 296 297 297 297
278 279 279 280 280 282 283 284 285 286 288 289 290 290 291 291 292 292 293 294 294 294 295 295 296 296 296 297 297 298 298 299 299 299 299 299 298 297 296 296 296 296 296 296
279 280 280 281 282 282 283 285 286 287 288 289 290 291 291 292 292 293 293 294 295 295 295 295 296 296 297 298 298 299 299 299 299 299 299 299 298 297 297 296 296 296 296 296
280 281 282 282 283 284 285 285 286 288 289 289 290 290 291 292 293 294 294 295 295 295 295 296 296 297 298 298 299 299 299 299 299 299 299 299 298 298 297 296 295 295 296 295
281 281 282 283 283 284 286 286 287 288 288 289 290 291 292 293 294 295 295 295 295 295 296 297 297 298 298 298 299 299 299 298 298 299 299 299 299 298 297 296 295 295 295 295
281 282 283 283 284 285 286 286 286 287 287 289 290 291 292 293 294 295 295 295 295 295 296 297 297 297 297 298 298 298 298 298 299 299 299 299 300 300 298 297 295 295 294 294
281 282 283 283 284 284 284 284 285 286 287 288 289 290 292 293 294 294 294 294 294 295 296 296 296 296 297 297 297 297 297 298 299 300 300 300 301 300 298 297 295 293 292 291
281 282 283 283 283 283 284 285 286 288 289 290 291 292 292 293 293 294 294 294 294 294 294 295 295 296 296 296 295 296 296 296 297 299 300 299 299 298 297 296 293 291 290 290
Height
5706 5705 5704 5703 5703 5701 5700 5699 5698 5699 5698 5697 5695 5694 5693 5692 5691 5690 5689 5688 5686 5685 5684 5682 5681 5679 5678 5676 5674 5672 5670 5668 5665 5663 5660 5657 5654 5650 5647 5643 5640 5636 5632 5628
5702 5700 5699 5698 5698 5696 5695 5694 5693 5692 5692 5691 5689 5687 5686 5685 5684 5683 5682 5680 5679 5677 5676 5674 5672 5670 5668 5666 5664 5662 5659 5657 5654 5651 5648 5645 5641 5638 5634 5630 5626 5622 5618 5614
5696 5695 5693 5693 5693 5691 5689 5688 5687 5685 5686 5683 5682 5680 5679 5678 5676 5675 5674 5672 5670 5669 5667 5665 5662 5660 5658 5656 5653 5651 5648 5645 5642 5639 5636 5632 5628 5624 5620 5616 5612 5608 5604 5599
5689 5689 5687 5690 5686 5684 5683 5681 5680 5678 5677 5676 5674 5673 5671 5670 5668 5666 5665 5663 5661 5659 5657 5655 5652 5650 5647 5645 5642 5639 5636 5632 5629 5626 5622 5619 5615 5610 5606 5602 5598 5593 5589 5584
5681 5680 5680 5681 5679 5676 5675 5674 5672 5670 5669 5667 5666 5664 5663 5661 5659 5657 5655 5653 5651 5649 5647 5644 5642 5639 5636 5633 5630 5626 5623 5619 5616 5612 5608 5604 5600 5596 5591 5587 5583 5578 5574 5569
5673 5671 5671 5674 5671 5668 5667 5666 5665 5662 5660 5659 5657 5656 5655 5652 5650 5647 5645 5643 5641 5638 5635 5633 5630 5627 5624 5621 5617 5613 5610 5606 5602 5598 5594 5590 5585 5581 5576 5571 5567 5563 5558 5553
5664 5661 5662 5664 5661 5659 5659 5658 5655 5653 5651 5649 5648 5646 5644 5642 5639 5637 5635 5632 5630 5627 5624 5621 5617 5614 5611 5608 5604 5600 5596 5592 5588 5583 5579 5574 5570 5565 5560 5556 5552 5547 5543 5538
5654 5652 5655 5652 5650 5649 5648 5646 5644 5642 5641 5639 5637 5635 5633 5631 5628 5626 5623 5621 5618 5615 5612 5608 5604 5601 5598 5594 5590 5587 5583 5578 5574 5569 5563 5558 5554 5549 5544 5539 5535 5530 5526 5522
5645 5646 5643 5641 5639 5638 5637 5635 5634 5632 5630 5628 5626 5624 5622 5619 5617 5614 5611 5608 5605 5602 5599 5595 5591 5587 5584 5580 5576 5572 5568 5563 5558 5553 5548 5543 5538 5533 5528 5523 5518 5514 5509 5505
5634 5634 5632 5629 5627 5626 5625 5624 5622 5621 5619 5617 5615 5612 5610 5607 5604 5601 5598 5595 5592 5588 5585 5581 5577 5573 5569 5565 5561 5557 5553 5548 5543 5538 5533 5527 5522 5516 5511 5506 5501 5497 5492 5488
5621 5622 5619 5618 5616 5615 5613 5612 5610 5609 5607 5604 5602 5600 5597 5594 5591 5588 5585 5582 5578 5575 5571 5567 5563 5559 5554 5550 5546 5542 5537 5533 5527 5522 5517 5512 5507 5501 5495 5490 5484 5480 5476 5472
5609 5608 5605 5605 5604 5602 5601 5599 5598 5596 5594 5591 5589 5586 5583 5581 5578 5574 5571 5568 5564 5560 5556 5552 5548 5544 5539 5535 5530 5526 5522 5517 5512 5506 5501 5496 5491 5486 5480 5474 5470 5464 5460 5456
5595 5594 5592 5591 5591 5589 5588 5586 5584 5582 5580 5578 5575 5572 5569 5567 5563 5560 5557 5553 5550 5546 5542 5538 5534 5529 5524 5520 5515 5510 5506 5501 5496 5491 5485 5480 5475 5470 5466 5462 5455 5450 5445 5441
5580 5579 5578 5578 5577 5575 5574 5572 5570 5568 5566 5563 5561 5558 5555 5552 5549 5546 5542 5538 5535 5531 5527 5523 5519 5514 5509 5504 5500 5495 5490 5485 5480 5475 5470 5465 5459 5454 5449 5445 5442 5438 5432 5427
5566 5565 5564 5564 5563 5561 5559 5558 5556 5554 5552 5549 5547 5544 5541 5538 5535 5531 5527 5524 5520 5517 5513 5508 5504 5499 5494 5490 5485 5480 5475 5470 5465 5460 5455 5450 5444 5440 5435 5430 5426 5423 5419 5414
5552 5551 5550 5550 5549 5547 5545 5544 5542 5540 5537 5535 5532 5529 5526 5524 5520 5517 5513 5509 5506 5502 5498 5493 5489 5484 5480 5475 5470 5465 5460 5455 5450 5445 5440 5435 5430 5425 5421 5416 5412 5408 5404 5400
5539 5538 5537 5536 5535 5533 5532 5530 5528 5525 5523 5521 5518 5515 5513 5510 5506 5503 5499 5495 5492 5488 5483 5478 5474 5470 5465 5460 5455 5450 5446 5441 5436 5431 5426 5421 5416 5412 5407 5403 5398 5395 5391 5387
5525 5524 5524 5523 5521 5520 5518 5516 5514 5512 5509 5507 5504 5501 5498 5495 5492 5488 5485 5481 5478 5474 5469 5463 5459 5455 5451 5445 5440 5436 5431 5427 5422 5417 5412 5407 5403 5398 5394 5390 5386 5382 5378 5375
5511 5511 5510 5509 5507 5506 5504 5502 5500 5498 5496 5493 5490 5487 5484 5481 5477 5474 5470 5467 5463 5459 5455 5450 5445 5440 5436 5431 5426 5422 5417 5413 5408 5404 5399 5394 5390 5385 5381 5377 5373 5370 5366 5363
5498 5497 5496 5495 5494 5492 5491 5489 5486 5484 5482 5479 5476 5473 5470 5467 5463 5459 5456 5453 5448 5443 5439 5435 5431 5426 5421 5417 5412 5408 5403 5399 5394 5390 5385 5381 5377 5373 5369 5365 5362 5359 5356 5353
5485 5484 5483 5482 5481 5479 5477 5475 5473 5471 5468 5465 5462 5459 5456 5452 5448 5444 5441 5438 5434 5429 5425 5421 5416 5412 5407 5403 5399 5394 5390 5385 5381 5377 5372 5368 5365 5361 5358 5354 5351 5348 5345 5342
5472 5471 5470 5469 5467 5466 5464 5461 5459 5456 5454 5451 5448 5444 5441 5438 5434 5430 5427 5423 5419 5415 5411 5407 5403 5398 5394 5389 5385 5381 5376 5372 5368 5364 5360 5357 5353 5350 5347 5344 5341 5338 5335 5333
5459 5458 5457 5455 5453 5452 5450 5447 5445 5442 5439 5436 5433 5430 5426 5423 5419 5416 5413 5410 5404 5401 5397 5393 5389 5385 5380 5376 5372 5368 5364 5360 5356 5353 5349 5346 5342 5339 5336 5333 5331 5328 5326 5324
5446 5445 5443 5441 5439 5437 5435 5433 5430 5428 5425 5422 5419 5416 5412 5409 5406 5402 5398 5395 5391 5387 5384 5380 5375 5371 5367 5363 5360 5356 5352 5349 5345 5342 5339 5335 5332 5329 5326 5324 5321 5319 5317 5315
5432 5431 5429 5427 5425 5423 5421 5419 5416 5414 5411 5408 5406 5402 5398 5394 5391 5389 5385 5381 5377 5373 5370 5367 5363 5358 5355 5351 5348 5345 5341 5338 5335 5332 5329 5326 5323 5320 5317 5315 5313 5311 5310 5308
5419 5417 5415 5413 5411 5409 5406 5404 5402 5400 5397 5394 5392 5389 5385 5381 5377 5374 5371 5367 5364 5360 5357 5354 5350 5346 5343 5340 5337 5334 5331 5328 5325 5323 5320 5317 5314 5312 5310 5308 5306 5304 5303 5302
5404 5402 5400 5399 5397 5394 5392 5390 5388 5385 5383 5380 5378 5375 5371 5367 5363 5360 5357 5354 5350 5347 5344 5341 5338 5334 5332 5329 5326 5324 5321 5319 5316 5314 5311 5309 5307 5304 5302 5301 5299 5298 5297 5296